Weather History for KSPD - June, 2013

Change the Weather History Date:

Saturday, June 22, 2013

  Actual Average Record
Temperature  
Mean Temperature 86 °F -  
Max Temperature 100 °F 88 °F 100 °F (2013)
Min Temperature 72 °F 58 °F 48 °F (2004)
Degree Days  
Heating Degree Days 0 0  
Month to date heating degree days 19 19  
Since 1 June heating degree days 19 19  
Since 1 July heating degree days 5211 5281  
Cooling Degree Days 21 9  
Month to date cooling degree days 238 134  
Year to date cooling degree days 355 188  
Since 1 June cooling degree days 238 134  
Growing Degree Days 34 (Base 50)    
Moisture  
Dew Point 36 °F    
Average Humidity 33    
Maximum Humidity 61    
Minimum Humidity 4    
Precipitation  
Precipitation 0.00 in 0.08 in 0.20 in (2006)
Month to date precipitation 1.64 1.86  
Year to date precipitation 3.62 7.43  
Sea Level Pressure  
Sea Level Pressure 29.62 in    
Wind  
Wind Speed 15 mph (WSW)    
Max Wind Speed 30 mph    
Max Gust Speed 43 mph    
T = Trace of Precipitation, MM = Missing Value Source: NWS Daily Summary

Daily Weather History Graph

Daily Weather History Graph

Search for Another Location

Airport or City:

Trip Planner

Search our weather history database for the weather conditions in past years. The results will help you decide how hot, cold, wet, or windy it might be!

Date:

Astronomy

Jun. 22, 2013 Rise Set
Actual Time 5:30 AM MDT 8:14 PM MDT
Civil Twilight 4:59 AM MDT 8:45 PM MDT
Nautical Twilight 4:20 AM MDT 9:24 PM MDT
Astronomical Twilight 3:36 AM MDT 10:08 PM MDT
Moon 7:32 PM MDT (6/22) 4:44 AM MDT (6/22)
Length of Visible Light 15h 46m
Length of Day
14h 43m
Waxing Gibbous, 99% of the Moon is Illuminated
Jun 22
Waxing Gibbous
Jun 23
Full
Jun 29
Last Quarter
Jul 8
New
Jul 15
First Quarter

Hourly Weather History & Observations

Time (MDT) Temp. Heat Index Dew Point Humidity Pressure Visibility Wind Dir Wind Speed Gust Speed Precip Events Conditions
12:56 AM 75.9 °F - 52.0 °F 43% 29.68 in - SW 18.4 mph 34.5 mph N/A   Unknown
1:56 AM 75.9 °F - 55.9 °F 50% 29.68 in - WSW 24.2 mph 34.5 mph N/A   Unknown
2:56 AM 77.0 °F - 55.9 °F 48% 29.66 in - WSW 23.0 mph 38.0 mph N/A   Unknown
3:56 AM 75.0 °F - 57.0 °F 53% 29.65 in - WSW 24.2 mph 28.8 mph N/A   Unknown
4:56 AM 73.9 °F - 57.9 °F 57% 29.63 in - West 16.1 mph 26.5 mph N/A   Unknown
5:56 AM 72.0 °F - 57.9 °F 61% 29.64 in - WSW 12.7 mph - N/A   Unknown
6:56 AM 77.0 °F - 57.9 °F 52% 29.63 in - WSW 12.7 mph - N/A   Unknown
7:56 AM 84.0 °F 82.5 °F 53.1 °F 34% 29.65 in - NW 9.2 mph - N/A   Unknown
8:56 AM 84.9 °F 83.2 °F 53.1 °F 33% 29.66 in - North 12.7 mph 21.9 mph N/A   Unknown
9:56 AM 84.9 °F - 45.0 °F 25% 29.69 in - North 12.7 mph - N/A   Unknown
10:56 AM 84.0 °F - 46.0 °F 26% 29.70 in - North 9.2 mph - N/A   Unknown
11:56 AM 88.0 °F - 45.0 °F 22% 29.69 in - ENE 5.8 mph - N/A   Unknown
12:56 PM 89.1 °F - 46.0 °F 22% 29.65 in - Variable 5.8 mph - N/A   Unknown
1:56 PM 93.0 °F - 51.1 °F 24% 29.61 in - ESE 8.1 mph - N/A   Unknown
2:56 PM 96.1 °F - 21.9 °F 7% 29.57 in - WSW 11.5 mph 34.5 mph N/A   Unknown
3:56 PM 97.0 °F - 17.1 °F 5% 29.56 in - SW 21.9 mph 31.1 mph N/A   Unknown
4:56 PM 97.0 °F - 8.1 °F 4% 29.53 in - WSW 19.6 mph 28.8 mph N/A   Unknown
5:56 PM 95.0 °F - 8.1 °F 4% 29.52 in - SW 23.0 mph 31.1 mph N/A   Unknown
6:56 PM 91.0 °F - 10.0 °F 5% 29.52 in - SW 16.1 mph 29.9 mph N/A   Unknown
7:56 PM 88.0 °F - 10.9 °F 6% 29.53 in - SW 13.8 mph - N/A   Unknown
8:56 PM 81.0 °F - 15.1 °F 8% 29.55 in - SSW 15.0 mph - N/A   Unknown
9:56 PM 78.1 °F - 17.1 °F 10% 29.58 in - SSW 13.8 mph - N/A   Unknown
10:56 PM 73.9 °F - 16.0 °F 11% 29.61 in - WSW 11.5 mph - N/A   Unknown
11:56 PM 73.9 °F - 17.1 °F 12% 29.60 in - SSW 18.4 mph - N/A   Unknown